Time,TemperatureF,DewpointF,PressureIn,WindDirection,WindDirectionDegrees,WindSpeedMPH,WindSpeedGustMPH,Humidity,HourlyPrecipIn,Conditions,Clouds,dailyrainin,SoftwareType,DateUTC
2013-03-13 00:13:00,29.5,25.0,25.40,WNW,293,3.0,5.0,83,0.00,,,0.00,weatherlink.com 1.10,2013-03-13 06:13:00,
2013-03-13 00:28:00,29.8,25.0,25.40,WSW,252,3.0,6.0,83,0.00,,,0.00,weatherlink.com 1.10,2013-03-13 06:28:00,
2013-03-13 00:43:00,29.8,25.0,25.39,West,263,1.0,4.0,83,0.00,,,0.00,weatherlink.com 1.10,2013-03-13 06:43:00,
2013-03-13 00:58:00,29.7,25.0,25.39,West,262,2.0,4.0,83,0.00,,,0.00,weatherlink.com 1.10,2013-03-13 06:58:00,
2013-03-13 01:13:00,29.2,25.0,25.39,SW,236,4.0,5.0,84,0.00,,,0.00,weatherlink.com 1.10,2013-03-13 07:13:00,
2013-03-13 01:28:00,29.2,25.0,25.39,WSW,256,3.0,4.0,85,0.00,,,0.00,weatherlink.com 1.10,2013-03-13 07:28:00,
2013-03-13 01:43:00,29.2,25.0,25.39,West,263,3.0,5.0,85,0.00,,,0.00,weatherlink.com 1.10,2013-03-13 07:43:00,
2013-03-13 01:58:00,29.4,26.0,25.39,WSW,243,2.0,5.0,85,0.00,,,0.00,weatherlink.com 1.10,2013-03-13 07:58:00,
2013-03-13 02:13:00,29.2,25.0,25.39,WSW,238,2.0,4.0,85,0.00,,,0.00,weatherlink.com 1.10,2013-03-13 08:13:00,
2013-03-13 02:28:00,28.9,25.0,25.38,SSE,160,2.0,4.0,85,0.00,,,0.00,weatherlink.com 1.10,2013-03-13 08:28:00,
2013-03-13 02:43:00,28.5,25.0,25.37,WSW,241,1.0,5.0,86,0.00,,,0.00,weatherlink.com 1.10,2013-03-13 08:43:00,
2013-03-13 02:58:00,28.7,25.0,25.37,West,269,3.0,6.0,86,0.00,,,0.00,weatherlink.com 1.10,2013-03-13 08:58:00,
2013-03-13 03:13:00,28.6,25.0,25.37,West,267,2.0,4.0,86,0.00,,,0.00,weatherlink.com 1.10,2013-03-13 09:13:00,
2013-03-13 03:28:00,27.7,24.0,25.37,WSW,249,3.0,5.0,87,0.00,,,0.00,weatherlink.com 1.10,2013-03-13 09:28:00,
2013-03-13 03:43:00,27.7,24.0,25.36,West,269,1.0,4.0,87,0.00,,,0.00,weatherlink.com 1.10,2013-03-13 09:43:00,
2013-03-13 03:58:00,28.9,25.0,25.36,West,262,4.0,8.0,86,0.00,,,0.00,weatherlink.com 1.10,2013-03-13 09:58:00,
2013-03-13 04:13:00,27.7,24.0,25.36,WNW,294,2.0,5.0,85,0.00,,,0.00,weatherlink.com 1.10,2013-03-13 10:13:00,
2013-03-13 04:28:00,27.3,24.0,25.36,WNW,282,5.0,7.0,87,0.00,,,0.00,weatherlink.com 1.10,2013-03-13 10:28:00,
2013-03-13 04:43:00,27.4,24.0,25.36,WNW,284,6.0,10.0,86,0.00,,,0.00,weatherlink.com 1.10,2013-03-13 10:43:00,
2013-03-13 04:58:00,27.0,23.0,25.36,West,273,4.0,10.0,86,0.00,,,0.00,weatherlink.com 1.10,2013-03-13 10:58:00,
2013-03-13 05:13:00,27.1,24.0,25.37,WSW,256,6.0,10.0,86,0.00,,,0.00,weatherlink.com 1.10,2013-03-13 11:13:00,
2013-03-13 05:28:00,27.7,24.0,25.37,West,278,9.0,12.0,86,0.00,,,0.00,weatherlink.com 1.10,2013-03-13 11:28:00,
2013-03-13 05:43:00,28.0,24.0,25.38,WNW,295,8.0,11.0,85,0.00,,,0.00,weatherlink.com 1.10,2013-03-13 11:43:00,
2013-03-13 05:58:00,28.0,24.0,25.38,West,271,9.0,12.0,85,0.00,,,0.00,weatherlink.com 1.10,2013-03-13 11:58:00,
2013-03-13 06:13:00,27.9,24.0,25.38,West,271,7.0,11.0,85,0.00,,,0.00,weatherlink.com 1.10,2013-03-13 12:13:00,
2013-03-13 06:28:00,28.3,24.0,25.37,West,267,7.0,12.0,85,0.00,,,0.00,weatherlink.com 1.10,2013-03-13 12:28:00,
2013-03-13 06:43:00,28.3,24.0,25.37,West,273,6.0,8.0,84,0.00,,,0.00,weatherlink.com 1.10,2013-03-13 12:43:00,
2013-03-13 06:58:00,27.9,24.0,25.37,West,264,9.0,10.0,84,0.00,,,0.00,weatherlink.com 1.10,2013-03-13 12:58:00,
2013-03-13 07:13:00,28.7,25.0,25.38,West,273,6.0,10.0,84,0.00,,,0.00,weatherlink.com 1.10,2013-03-13 13:13:00,
2013-03-13 07:28:00,29.0,25.0,25.38,WNW,297,5.0,8.0,83,0.00,,,0.00,weatherlink.com 1.10,2013-03-13 13:28:00,
2013-03-13 07:44:00,30.1,25.0,25.38,West,280,8.0,11.0,82,0.00,,,0.00,weatherlink.com 1.10,2013-03-13 13:44:00,
2013-03-13 07:59:00,32.6,26.0,25.39,West,265,9.0,15.0,78,0.00,,,0.00,weatherlink.com 1.10,2013-03-13 13:59:00,
2013-03-13 08:14:00,34.2,27.0,25.39,West,277,8.0,13.0,76,0.00,,,0.00,weatherlink.com 1.10,2013-03-13 14:14:00,
2013-03-13 08:29:00,35.9,28.0,25.40,West,278,9.0,13.0,74,0.00,,,0.00,weatherlink.com 1.10,2013-03-13 14:29:00,
2013-03-13 08:44:00,38.2,30.0,25.40,WNW,288,7.0,11.0,73,0.00,,,0.00,weatherlink.com 1.10,2013-03-13 14:44:00,
2013-03-13 09:00:00,41.3,32.0,25.40,WNW,296,5.0,10.0,69,0.00,,,0.00,weatherlink.com 1.10,2013-03-13 15:00:00,
2013-03-13 09:14:00,44.9,33.0,25.40,NW,323,4.0,11.0,63,0.00,,,0.00,weatherlink.com 1.10,2013-03-13 15:14:00,
2013-03-13 09:29:00,49.4,31.0,25.40,NNW,339,11.0,18.0,50,0.00,,,0.00,weatherlink.com 1.10,2013-03-13 15:29:00,
2013-03-13 09:44:00,51.6,31.0,25.40,NW,314,12.0,20.0,45,0.00,,,0.00,weatherlink.com 1.10,2013-03-13 15:44:00,
2013-03-13 09:59:00,52.7,30.0,25.40,NW,311,11.0,21.0,42,0.00,,,0.00,weatherlink.com 1.10,2013-03-13 15:59:00,
2013-03-13 10:14:00,53.0,30.0,25.41,WNW,296,14.0,22.0,41,0.00,,,0.00,weatherlink.com 1.10,2013-03-13 16:14:00,
2013-03-13 10:29:00,53.7,29.0,25.41,NW,314,10.0,22.0,39,0.00,,,0.00,weatherlink.com 1.10,2013-03-13 16:29:00,
2013-03-13 10:44:00,54.9,30.0,25.41,WNW,300,10.0,21.0,38,0.00,,,0.00,weatherlink.com 1.10,2013-03-13 16:44:00,
2013-03-13 10:59:00,55.4,29.0,25.41,NW,305,11.0,23.0,36,0.00,,,0.00,weatherlink.com 1.10,2013-03-13 16:59:00,
2013-03-13 11:14:00,57.0,29.0,25.41,NW,307,9.0,18.0,34,0.00,,,0.00,weatherlink.com 1.10,2013-03-13 17:14:00,
2013-03-13 11:29:00,56.9,27.0,25.41,NNW,331,8.0,18.0,32,0.00,,,0.00,weatherlink.com 1.10,2013-03-13 17:29:00,
2013-03-13 11:44:00,58.0,28.0,25.41,West,278,13.0,18.0,32,0.00,,,0.00,weatherlink.com 1.10,2013-03-13 17:44:00,
2013-03-13 12:00:00,57.9,28.0,25.41,West,280,6.0,18.0,32,0.00,,,0.00,weatherlink.com 1.10,2013-03-13 18:00:00,
2013-03-13 12:15:00,58.4,27.0,25.41,WNW,301,8.0,18.0,30,0.00,,,0.00,weatherlink.com 1.10,2013-03-13 18:15:00,
2013-03-13 12:30:00,60.0,27.0,25.41,WNW,294,7.0,15.0,28,0.00,,,0.00,weatherlink.com 1.10,2013-03-13 18:30:00,
2013-03-13 12:45:00,60.4,26.0,25.40,NNW,339,6.0,18.0,27,0.00,,,0.00,weatherlink.com 1.10,2013-03-13 18:45:00,
2013-03-13 13:00:00,61.6,28.0,25.40,NNW,327,13.0,15.0,28,0.00,,,0.00,weatherlink.com 1.10,2013-03-13 19:00:00,
2013-03-13 13:15:00,61.0,27.0,25.40,North,1,10.0,20.0,27,0.00,,,0.00,weatherlink.com 1.10,2013-03-13 19:15:00,
2013-03-13 13:30:00,61.9,26.0,25.39,NW,311,15.0,17.0,26,0.00,,,0.00,weatherlink.com 1.10,2013-03-13 19:30:00,
2013-03-13 13:45:00,62.0,28.0,25.38,NW,324,13.0,20.0,28,0.00,,,0.00,weatherlink.com 1.10,2013-03-13 19:45:00,
2013-03-13 14:00:00,62.3,28.0,25.38,NNW,331,6.0,17.0,27,0.00,,,0.00,weatherlink.com 1.10,2013-03-13 20:00:00,
2013-03-13 14:15:00,61.7,28.0,25.38,NW,311,7.0,19.0,28,0.00,,,0.00,weatherlink.com 1.10,2013-03-13 20:15:00,
2013-03-13 14:30:00,61.9,30.0,25.36,NW,316,9.0,17.0,30,0.00,,,0.00,weatherlink.com 1.10,2013-03-13 20:30:00,
2013-03-13 14:45:00,62.8,29.0,25.36,WNW,288,9.0,21.0,28,0.00,,,0.00,weatherlink.com 1.10,2013-03-13 20:45:00,
2013-03-13 15:00:00,63.2,28.0,25.36,NW,312,13.0,25.0,26,0.00,,,0.00,weatherlink.com 1.10,2013-03-13 21:00:00,
2013-03-13 15:15:00,62.1,29.0,25.35,NW,317,11.0,15.0,29,0.00,,,0.00,weatherlink.com 1.10,2013-03-13 21:15:00,
2013-03-13 15:30:00,62.3,29.0,25.35,West,274,12.0,18.0,29,0.00,,,0.00,weatherlink.com 1.10,2013-03-13 21:30:00,
2013-03-13 15:45:00,61.8,29.0,25.36,NW,308,6.0,20.0,29,0.00,,,0.00,weatherlink.com 1.10,2013-03-13 21:45:00,
2013-03-13 16:00:00,62.5,29.0,25.36,West,278,4.0,20.0,28,0.00,,,0.00,weatherlink.com 1.10,2013-03-13 22:00:00,
2013-03-13 16:15:00,64.0,29.0,25.35,WNW,288,13.0,18.0,27,0.00,,,0.00,weatherlink.com 1.10,2013-03-13 22:15:00,
2013-03-13 16:30:00,64.1,27.0,25.35,NW,304,12.0,21.0,25,0.00,,,0.00,weatherlink.com 1.10,2013-03-13 22:30:00,
2013-03-13 16:47:00,63.9,27.0,25.35,NNW,327,19.0,21.0,25,0.00,,,0.00,weatherlink.com 1.10,2013-03-13 22:47:00,
2013-03-13 17:00:00,63.2,28.0,25.34,NW,326,16.0,28.0,26,0.00,,,0.00,weatherlink.com 1.10,2013-03-13 23:00:00,
2013-03-13 17:15:00,62.8,27.0,25.34,NNW,328,9.0,20.0,26,0.00,,,0.00,weatherlink.com 1.10,2013-03-13 23:15:00,
2013-03-13 17:30:00,62.5,27.0,25.35,WNW,293,14.0,23.0,26,0.00,,,0.00,weatherlink.com 1.10,2013-03-13 23:30:00,
2013-03-13 17:45:00,61.2,27.0,25.35,NW,323,9.0,24.0,27,0.00,,,0.00,weatherlink.com 1.10,2013-03-13 23:45:00,
2013-03-13 18:00:00,60.2,28.0,25.35,NW,315,15.0,21.0,30,0.00,,,0.00,weatherlink.com 1.10,2013-03-14 00:00:00,
2013-03-13 18:15:00,58.6,29.0,25.35,WNW,297,13.0,15.0,33,0.00,,,0.00,weatherlink.com 1.10,2013-03-14 00:15:00,
2013-03-13 18:30:00,57.6,30.0,25.35,NW,314,9.0,15.0,35,0.00,,,0.00,weatherlink.com 1.10,2013-03-14 00:30:00,
2013-03-13 18:45:00,56.8,30.0,25.35,WNW,294,9.0,15.0,36,0.00,,,0.00,weatherlink.com 1.10,2013-03-14 00:45:00,
2013-03-13 19:00:00,55.4,29.0,25.35,WNW,283,8.0,14.0,37,0.00,,,0.00,weatherlink.com 1.10,2013-03-14 01:00:00,
2013-03-13 19:15:00,54.4,29.0,25.36,NW,326,7.0,14.0,38,0.00,,,0.00,weatherlink.com 1.10,2013-03-14 01:15:00,
2013-03-13 19:30:00,53.8,29.0,25.36,NW,308,9.0,14.0,38,0.00,,,0.00,weatherlink.com 1.10,2013-03-14 01:30:00,
2013-03-13 19:45:00,53.8,29.0,25.36,NW,305,9.0,15.0,38,0.00,,,0.00,weatherlink.com 1.10,2013-03-14 01:45:00,
2013-03-13 20:00:00,53.9,29.0,25.36,WSW,250,9.0,16.0,38,0.00,,,0.00,weatherlink.com 1.10,2013-03-14 02:00:00,
2013-03-13 20:15:00,53.7,28.0,25.37,WNW,290,5.0,16.0,38,0.00,,,0.00,weatherlink.com 1.10,2013-03-14 02:15:00,
2013-03-13 20:30:00,53.5,29.0,25.36,WNW,288,8.0,15.0,39,0.00,,,0.00,weatherlink.com 1.10,2013-03-14 02:30:00,
2013-03-13 20:45:00,53.0,29.0,25.36,West,269,9.0,15.0,40,0.00,,,0.00,weatherlink.com 1.10,2013-03-14 02:45:00,
2013-03-13 21:00:00,52.2,29.0,25.36,WNW,300,9.0,13.0,41,0.00,,,0.00,weatherlink.com 1.10,2013-03-14 03:00:00,
2013-03-13 21:15:00,51.6,29.0,25.37,WNW,283,10.0,13.0,42,0.00,,,0.00,weatherlink.com 1.10,2013-03-14 03:15:00,
2013-03-13 21:45:00,48.7,31.0,25.38,WSW,258,9.0,14.0,50,0.00,,,0.00,weatherlink.com 1.10,2013-03-14 03:45:00,
2013-03-13 22:00:00,49.0,30.0,25.38,West,271,8.0,12.0,48,0.00,,,0.00,weatherlink.com 1.10,2013-03-14 04:00:00,
2013-03-13 22:15:00,48.6,30.0,25.38,WNW,291,4.0,13.0,48,0.00,,,0.00,weatherlink.com 1.10,2013-03-14 04:15:00,
2013-03-13 22:30:00,48.6,30.0,25.38,WNW,287,7.0,14.0,48,0.00,,,0.00,weatherlink.com 1.10,2013-03-14 04:30:00,
2013-03-13 23:00:00,45.4,29.0,25.39,West,270,7.0,10.0,53,0.00,,,0.00,weatherlink.com 1.10,2013-03-14 05:00:00,
2013-03-13 23:15:00,44.4,29.0,25.39,West,262,4.0,11.0,55,0.00,,,0.00,weatherlink.com 1.10,2013-03-14 05:15:00,
2013-03-13 23:30:00,43.5,29.0,25.38,WNW,293,6.0,9.0,56,0.00,,,0.00,weatherlink.com 1.10,2013-03-14 05:30:00,
2013-03-13 23:45:00,41.7,29.0,25.39,West,260,8.0,11.0,60,0.00,,,0.00,weatherlink.com 1.10,2013-03-14 05:45:00,